Temperature
12 12 12 12 12 12 12 12 13 13 13 13 13 14 14 14 14 14 15 15 15 15 15 15 15 15 15 15 15 15 15 14 14 15 15 15 15 15 15 15 15 15 15
12 12 12 11 11 12 12 12 12 12 13 13 13 13 13 13 14 14 14 14 14 14 14 14 15 15 14 14 14 14 14 14 14 14 14 14 14 14 14 14 14 15 15
12 12 11 11 11 11 11 11 12 12 12 12 12 12 12 13 13 13 13 14 14 14 14 14 14 14 14 14 14 14 14 14 14 14 14 14 14 14 14 14 14 14 14
12 12 11 11 11 11 11 11 11 11 12 12 12 12 12 13 13 13 13 13 13 13 14 14 14 14 13 13 13 13 13 13 13 13 13 13 13 13 13 14 13 14 14
12 12 11 11 11 11 11 11 11 11 11 11 12 12 12 12 13 13 13 13 13 13 13 13 13 13 13 13 13 13 13 13 13 13 13 13 13 13 13 13 13 13 13
12 12 11 11 11 11 11 11 11 11 11 11 11 11 12 12 12 12 12 12 13 13 13 13 13 13 13 13 13 13 13 13 13 13 13 13 13 13 13 13 13 13 13
12 12 11 11 11 11 10 10 10 10 10 11 11 11 11 11 12 12 12 12 12 12 12 12 12 12 13 13 13 13 12 13 13 13 13 13 13 13 13 13 13 13 13
12 12 11 11 11 10 10 10 10 10 10 10 10 10 10 10 11 11 11 11 11 12 12 12 12 12 12 12 13 12 12 13 13 13 13 13 13 13 13 13 13 13 12
12 12 11 11 10 10 10 10 10 10 10 10 10 10 10 10 10 11 11 11 11 11 12 12 12 12 12 12 13 13 13 13 13 13 13 13 13 13 13 13 13 13 12
12 11 11 11 10 10 10 10 10 10 10 9 9 9 9 9 10 10 10 10 11 11 11 12 12 12 12 12 13 13 13 12 12 13 13 13 13 13 13 13 13 13 12
12 11 11 10 11 10 10 10 9 9 9 9 9 9 9 9 9 10 10 10 10 10 11 11 12 12 12 12 12 13 12 12 12 12 13 12 12 12 12 12 12 13 13
12 11 11 11 10 10 10 10 10 9 9 9 9 9 9 9 9 9 9 10 10 10 11 11 12 12 12 12 12 12 12 12 12 12 12 12 12 12 12 12 12 12 12
12 12 11 11 11 10 10 10 10 9 9 9 9 9 9 9 9 9 9 10 10 10 11 11 12 12 12 12 12 12 12 12 12 12 12 12 12 12 12 12 12 12 12
13 12 12 12 11 11 10 10 10 10 10 9 9 9 9 9 10 10 10 10 10 10 10 11 11 12 12 12 12 12 12 12 12 12 12 12 12 12 12 12 12 12 12
13 13 12 12 11 11 10 10 10 10 10 10 10 10 10 10 10 10 10 10 10 10 10 10 11 11 12 12 12 12 12 12 12 12 12 12 11 11 11 11 11 11 11
14 13 13 12 12 11 11 10 10 10 10 10 10 10 10 10 10 10 10 10 10 10 10 10 11 11 11 12 12 12 12 12 12 12 12 11 11 11 11 11 10 11 11
14 14 13 12 12 12 11 11 11 10 10 10 10 10 10 10 10 10 10 10 10 10 10 10 10 11 11 11 11 12 12 12 12 12 11 11 11 11 11 10 10 10 10
14 14 13 13 12 12 12 11 11 11 11 10 10 10 10 10 10 10 10 10 10 10 10 10 10 10 11 11 11 11 11 11 11 11 11 11 11 11 10 10 10 10 9
14 14 13 13 13 12 12 12 12 11 11 11 11 10 10 10 10 10 10 10 10 10 10 10 10 10 10 10 10 11 11 11 11 11 11 10 10 10 10 10 10 9 9
14 14 13 13 13 13 12 12 12 12 12 11 11 11 11 10 10 10 10 10 10 10 10 10 10 10 10 10 10 10 10 10 10 10 10 10 10 10 10 10 9 9 9
14 13 14 13 13 13 13 13 13 13 12 12 12 11 11 11 10 10 10 10 10 10 10 10 10 10 10 10 10 10 10 10 10 10 10 10 10 9 9 9 9 9 9
14 14 14 14 13 13 13 13 13 13 13 12 12 12 12 11 11 10 10 11 11 11 11 11 10 10 10 10 10 10 10 10 10 10 9 9 9 9 9 9 9 8 8
14 14 14 14 13 13 13 13 13 13 13 12 12 12 12 12 11 11 11 11 11 11 11 11 11 11 11 11 11 10 10 10 9 9 9 9 9 9 9 8 8 8 8
15 14 14 14 14 13 13 13 13 13 13 13 13 13 12 12 12 11 11 11 12 12 12 12 12 12 12 12 11 11 11 10 10 10 9 9 9 8 8 8 8 8 8
15 14 14 13 13 13 13 13 13 13 13 13 13 13 13 12 12 12 12 12 12 12 12 12 12 12 12 12 12 12 12 11 11 11 10 10 9 8 8 8 8 7 7
15 14 14 14 13 13 13 13 13 13 13 13 13 13 13 13 12 12 12 12 12 12 12 12 12 13 13 12 12 12 12 12 12 11 11 10 10 9 9 8 8 8 8
Wind_Speed
8 7 7 7 7 7 8 8 8 8 9 8 9 8 7 6 5 4 3 2 2 2 3 3 4 4 4 4 4 4 4 4 4 2 2 2 3 2 2 2 4 8 11
7 7 7 7 8 9 9 9 8 9 9 8 9 9 9 9 7 6 4 3 3 3 3 3 3 3 4 4 4 5 4 4 4 3 2 2 3 4 3 2 3 6 8
6 7 7 7 8 8 9 9 9 9 10 10 10 10 10 10 10 9 6 4 3 3 3 3 4 4 4 4 4 4 4 4 3 3 3 2 2 3 3 2 2 4 8
6 7 7 7 8 8 8 9 10 10 11 11 11 11 11 11 12 11 8 5 4 3 3 3 3 4 5 5 5 5 5 4 4 4 3 2 2 2 3 3 3 4 6
5 6 6 7 7 7 8 8 9 10 11 10 10 10 10 10 11 12 9 7 5 4 4 4 4 6 6 5 5 5 5 4 4 3 3 2 3 3 4 4 6 7 7
5 6 6 7 7 7 7 7 7 8 9 9 9 9 10 10 16 17 13 7 6 5 4 4 4 6 7 8 9 7 6 4 4 3 3 4 4 4 4 5 7 7 4
5 6 6 6 7 7 8 7 7 7 8 8 8 8 8 11 17 18 17 7 4 4 4 3 3 5 5 6 7 8 6 5 2 3 3 3 4 4 5 6 6 6 6
6 6 5 6 7 7 7 7 8 6 6 5 6 7 6 11 17 18 17 6 4 5 5 5 5 5 5 5 6 7 6 5 3 3 3 2 2 4 5 6 8 9 9
6 6 6 6 6 7 7 7 6 6 5 5 5 6 7 9 16 17 16 5 4 5 6 7 6 6 7 7 7 7 7 5 7 9 9 8 9 9 8 8 10 10 8
6 6 5 5 6 6 7 6 5 5 5 4 4 5 6 7 13 17 15 6 6 5 5 6 9 7 7 6 6 7 6 4 5 6 6 6 7 8 10 7 8 9 7
5 5 5 5 4 5 5 4 4 4 4 4 4 4 5 7 10 14 14 7 6 5 4 5 5 7 7 7 7 6 5 4 5 6 6 6 7 6 6 6 6 7 6
4 3 3 5 5 5 3 3 4 5 5 5 5 5 4 5 8 10 12 10 9 5 5 4 4 6 7 8 7 6 6 6 5 6 7 7 7 7 7 7 10 10 9
4 3 1 4 3 2 4 5 5 5 5 5 5 5 5 6 8 14 13 10 9 5 4 5 5 5 6 6 6 6 5 5 5 7 7 6 6 7 7 7 9 13 14
3 2 1 2 2 3 3 4 4 5 5 6 6 6 5 5 7 8 8 7 7 4 3 3 5 7 6 6 4 4 4 5 6 6 6 5 5 5 6 6 6 6 8
3 3 3 3 1 1 4 3 4 4 3 3 4 5 5 5 6 9 6 6 5 5 3 2 2 3 4 4 3 4 4 5 5 5 5 5 5 5 4 4 5 6 6
3 3 2 3 2 1 3 3 2 2 4 3 2 3 2 3 6 8 9 10 10 9 4 4 4 4 4 4 4 4 4 4 4 5 5 5 5 5 4 4 5 6 7
4 3 3 2 2 2 2 3 3 3 2 2 2 1 2 4 6 7 8 10 9 7 5 5 4 4 4 3 3 4 4 4 4 5 5 5 5 5 4 4 4 5 6
4 2 3 2 3 3 2 1 2 3 3 4 5 6 4 3 5 7 8 5 3 4 4 4 3 3 2 3 3 3 3 3 3 4 4 4 4 4 4 4 4 5 5
4 3 4 3 3 3 3 3 3 3 3 4 5 4 6 5 5 7 6 2 3 3 3 3 2 2 2 2 3 3 4 4 4 4 4 4 4 4 4 4 5 5 3
3 2 3 3 4 4 4 4 4 3 3 3 4 4 3 4 3 2 0 1 2 3 3 3 2 2 2 3 2 2 3 4 4 4 4 3 3 4 5 5 4 3 2
5 6 8 5 5 5 4 4 4 4 3 3 4 6 5 1 1 3 2 2 2 2 2 2 2 2 2 2 2 1 2 3 3 3 3 3 3 3 3 3 3 3 4
5 4 6 6 6 6 4 4 4 4 4 4 5 5 7 3 3 3 4 4 3 3 3 2 2 2 1 1 1 1 1 2 3 3 3 3 3 3 2 2 3 3 3
5 5 4 5 6 6 5 4 4 4 5 5 6 7 6 5 5 5 5 5 5 4 3 3 3 3 2 1 1 2 1 1 2 3 3 3 3 3 3 3 3 3 3
6 7 6 5 5 5 5 6 6 6 6 6 5 6 7 7 6 6 6 6 6 5 5 6 4 6 7 5 3 2 1 2 4 3 1 2 3 3 3 3 3 3 3
7 7 6 6 5 5 5 6 6 6 6 6 6 5 6 7 7 7 6 6 8 7 7 8 8 7 9 10 8 6 5 4 3 2 1 0 1 2 2 3 3 3 3
7 7 6 6 5 5 5 5 5 5 5 5 6 6 6 6 6 7 7 7 7 7 6 7 11 12 12 11 12 12 12 9 7 4 1 1 2 3 3 2 4 3 4
Wind_Direction
1 1 9 9 5 12 9 5 8 9 14 24 25 32 36 36 38 46 49 66 97 116 128 150 160 164 164 164 163 166 171 167 180 169 173 170 155 152 143 181 167 167 181
2 3 12 14 12 18 13 7 13 16 16 25 32 34 33 29 25 31 42 54 73 92 107 124 134 137 139 144 158 166 165 165 168 168 167 157 169 168 156 176 171 166 156
7 10 15 18 17 18 14 9 17 21 20 22 31 33 32 29 21 15 20 39 67 91 111 124 129 130 132 136 140 143 144 147 137 144 156 154 150 151 148 160 129 111 123
19 17 14 19 21 19 20 15 19 23 27 23 29 31 28 29 20 10 4 15 37 63 96 104 112 120 127 129 129 130 131 131 133 136 136 141 148 153 145 142 118 106 107
29 26 15 16 22 18 24 22 24 27 30 25 27 28 25 26 16 9 357 8 22 42 76 94 99 112 119 124 129 132 132 133 140 143 150 153 163 158 165 153 133 113 99
41 41 26 21 19 16 25 24 27 35 32 29 25 25 27 21 9 11 6 357 11 31 49 73 104 109 115 111 111 117 127 141 152 154 163 168 177 169 151 144 138 128 112
51 47 37 29 21 18 21 24 26 35 36 31 19 19 28 18 11 7 359 351 15 35 46 58 93 100 99 113 119 111 92 84 121 156 156 168 167 164 152 151 146 128 117
53 40 39 43 28 21 17 27 28 24 30 31 17 15 24 22 14 7 355 5 24 40 39 45 78 87 84 100 109 97 78 55 58 106 116 110 121 142 146 142 126 110 106
58 44 36 41 36 25 19 20 25 17 15 25 23 21 28 24 17 11 3 358 26 49 52 51 66 75 83 97 107 106 97 85 74 88 96 100 98 107 120 121 126 130 128
53 49 39 41 47 33 22 15 14 12 4 15 31 35 39 34 24 20 12 13 19 34 55 67 64 65 72 82 102 111 111 116 115 104 92 93 91 97 115 126 138 140 135
59 53 42 27 59 64 22 3 10 1 353 7 22 46 58 48 28 24 20 19 3 19 45 56 50 53 67 76 87 97 110 105 99 101 92 80 72 72 81 91 106 130 130
94 68 61 54 31 38 19 360 9 359 357 7 14 30 46 54 36 16 18 21 15 32 42 47 46 54 72 80 83 86 89 85 88 92 85 77 76 74 76 78 83 83 88
144 137 143 132 124 56 11 18 20 15 9 9 14 17 23 38 22 13 8 15 21 36 53 52 55 67 79 80 81 80 80 87 91 91 89 85 86 88 83 78 73 72 68
136 138 164 86 92 98 70 43 40 27 14 6 10 9 10 31 20 4 355 1 11 28 48 58 64 70 78 86 80 70 76 91 101 102 102 99 96 94 97 101 97 89 75
172 198 166 130 112 91 103 75 67 88 75 30 6 358 10 10 358 352 357 358 354 354 352 37 56 71 78 77 74 77 79 88 96 104 104 101 95 90 92 102 108 100 98
220 182 152 154 149 151 149 142 71 106 141 108 51 14 46 26 345 352 356 357 360 6 41 59 58 61 72 78 82 81 80 90 99 105 107 111 111 107 97 86 99 111 115
258 192 163 157 151 211 214 175 172 183 207 244 259 314 8 345 347 348 349 349 358 27 61 62 58 55 59 73 87 96 95 96 98 104 110 113 112 110 107 104 106 111 120
253 165 154 174 201 222 222 207 188 172 185 206 225 239 248 291 325 334 336 343 27 55 66 71 65 59 65 77 88 96 100 99 97 103 104 105 108 112 114 113 108 116 125
244 194 182 209 211 210 204 221 218 198 190 165 159 201 231 242 280 304 331 43 78 81 79 70 62 65 67 71 80 91 98 100 102 103 101 103 109 114 113 108 105 108 124
247 189 176 213 240 223 209 217 220 201 201 177 157 158 181 204 210 206 133 66 94 100 100 96 67 54 59 63 64 80 97 101 102 104 108 104 101 109 119 126 140 158 161
225 202 193 211 242 248 226 216 211 193 199 181 147 142 150 217 181 152 153 148 129 132 122 107 99 77 55 46 44 83 120 128 123 121 123 120 115 113 122 130 137 135 125
239 217 185 202 220 234 234 226 215 198 197 181 155 160 171 204 238 191 173 173 168 147 135 139 146 127 97 29 353 341 121 134 139 141 140 137 128 130 128 130 136 135 140
238 260 232 210 212 212 209 233 239 216 205 203 180 166 178 204 217 198 182 173 164 166 162 168 171 162 176 229 307 353 352 173 140 127 135 147 152 161 167 170 164 162 179
212 233 242 233 223 216 208 214 225 221 208 205 199 183 181 191 197 193 183 172 169 174 176 183 197 196 188 187 208 250 327 62 72 68 93 150 166 174 174 166 171 195 185
208 222 224 223 227 225 225 226 227 223 210 200 202 197 188 184 187 187 181 175 173 181 186 188 195 203 199 190 195 193 176 158 129 63 36 127 186 183 174 177 183 200 192
204 218 220 213 217 224 228 234 237 233 224 209 200 197 191 188 187 184 180 178 179 185 186 190 196 198 202 205 206 197 185 182 186 191 189 314 227 204 189 200 209 206 205
Height
1518 1515 1512 1508 1505 1503 1500 1497 1494 1492 1490 1488 1487 1486 1485 1485 1485 1486 1487 1488 1489 1491 1492 1494 1496 1499 1501 1504 1507 1510 1514 1517 1520 1523 1525 1528 1531 1534 1536 1539 1542 1545 1547
1521 1518 1515 1511 1508 1505 1503 1500 1498 1495 1493 1491 1489 1488 1487 1486 1486 1487 1487 1488 1489 1490 1491 1492 1494 1496 1498 1501 1504 1507 1509 1513 1516 1519 1521 1524 1527 1530 1533 1536 1539 1541 1544
1523 1520 1517 1514 1511 1508 1505 1503 1501 1498 1496 1494 1492 1491 1489 1488 1488 1487 1488 1489 1489 1490 1491 1492 1493 1495 1496 1499 1501 1504 1506 1509 1512 1515 1518 1521 1524 1527 1530 1533 1536 1539 1541
1524 1521 1519 1516 1513 1511 1508 1505 1503 1501 1498 1496 1494 1493 1491 1490 1489 1489 1488 1489 1490 1490 1491 1492 1493 1494 1496 1498 1500 1502 1505 1508 1510 1513 1516 1519 1522 1524 1528 1531 1534 1536 1539
1526 1523 1520 1518 1516 1513 1510 1508 1505 1503 1500 1498 1496 1494 1493 1491 1490 1490 1490 1490 1490 1491 1491 1492 1493 1494 1496 1498 1500 1501 1504 1506 1509 1511 1514 1517 1519 1522 1525 1529 1532 1535 1538
1527 1524 1522 1519 1517 1515 1512 1510 1507 1505 1502 1500 1498 1496 1494 1493 1492 1491 1491 1491 1491 1491 1492 1493 1494 1495 1496 1498 1499 1501 1504 1506 1508 1510 1512 1515 1518 1521 1523 1527 1530 1533 1537
1528 1526 1523 1521 1518 1516 1514 1512 1509 1507 1505 1502 1500 1498 1496 1495 1493 1492 1492 1492 1492 1492 1493 1494 1495 1496 1497 1498 1500 1502 1504 1506 1508 1510 1512 1514 1516 1519 1522 1525 1528 1532 1535
1529 1527 1525 1522 1520 1518 1516 1514 1511 1509 1507 1505 1502 1500 1498 1496 1495 1494 1493 1493 1493 1494 1494 1495 1495 1496 1498 1499 1501 1502 1504 1506 1508 1510 1511 1513 1515 1518 1521 1524 1527 1531 1535
1529 1528 1526 1524 1522 1519 1517 1515 1513 1511 1509 1507 1505 1503 1500 1498 1496 1495 1494 1494 1495 1495 1495 1496 1497 1498 1499 1501 1502 1503 1505 1507 1509 1511 1512 1514 1516 1518 1520 1523 1526 1530 1534
1530 1529 1527 1525 1523 1521 1519 1517 1515 1513 1511 1509 1507 1505 1503 1500 1498 1497 1496 1495 1496 1496 1496 1497 1498 1499 1500 1502 1504 1505 1507 1509 1510 1512 1513 1515 1517 1519 1521 1523 1526 1529 1533
1530 1529 1528 1526 1524 1522 1520 1518 1517 1515 1513 1511 1510 1507 1505 1502 1500 1499 1497 1497 1497 1497 1497 1498 1499 1500 1502 1504 1505 1507 1509 1511 1513 1514 1516 1517 1519 1520 1522 1525 1528 1531 1533
1531 1530 1528 1527 1525 1524 1522 1520 1518 1516 1515 1513 1511 1510 1507 1505 1502 1501 1499 1499 1498 1498 1499 1499 1500 1502 1504 1506 1508 1510 1512 1514 1515 1517 1518 1520 1521 1523 1525 1527 1529 1532 1535
1532 1530 1529 1528 1526 1524 1523 1521 1519 1517 1515 1514 1512 1511 1509 1506 1504 1502 1501 1500 1500 1500 1500 1501 1502 1504 1506 1508 1510 1512 1514 1516 1517 1519 1521 1522 1524 1525 1527 1529 1531 1533 1535
1532 1531 1530 1529 1528 1526 1524 1522 1520 1518 1516 1514 1512 1511 1509 1507 1506 1504 1503 1502 1502 1502 1503 1504 1505 1507 1509 1511 1513 1515 1517 1518 1520 1521 1523 1525 1527 1528 1530 1531 1533 1535 1537
1532 1531 1530 1529 1528 1526 1525 1523 1521 1519 1517 1515 1513 1512 1510 1509 1507 1506 1505 1505 1505 1505 1505 1506 1508 1510 1511 1513 1515 1517 1519 1520 1522 1524 1525 1527 1529 1530 1532 1533 1535 1536 1538
1531 1531 1530 1529 1527 1527 1525 1524 1522 1521 1519 1517 1515 1513 1512 1510 1509 1508 1508 1507 1507 1508 1508 1509 1510 1512 1514 1515 1517 1519 1521 1523 1524 1526 1527 1529 1530 1532 1534 1535 1536 1537 1538
1530 1529 1529 1528 1527 1526 1525 1524 1523 1522 1520 1518 1517 1515 1514 1512 1511 1511 1510 1510 1510 1510 1511 1511 1513 1514 1516 1517 1519 1521 1523 1524 1526 1527 1529 1530 1532 1533 1535 1536 1537 1538 1538
1527 1527 1527 1526 1526 1525 1525 1524 1523 1522 1520 1519 1518 1517 1515 1514 1513 1513 1513 1513 1513 1513 1513 1514 1515 1516 1518 1519 1521 1522 1524 1526 1527 1529 1530 1531 1533 1534 1535 1536 1537 1538 1538
1525 1525 1525 1524 1524 1524 1524 1523 1522 1522 1521 1519 1518 1517 1517 1516 1515 1515 1515 1514 1514 1515 1515 1516 1517 1518 1519 1521 1522 1524 1525 1526 1528 1529 1530 1532 1533 1534 1535 1536 1536 1537 1538
1522 1522 1522 1522 1522 1522 1522 1522 1521 1521 1520 1520 1518 1517 1517 1516 1516 1515 1515 1515 1516 1516 1517 1517 1518 1519 1520 1521 1523 1524 1525 1527 1528 1529 1530 1531 1532 1533 1534 1534 1535 1536 1537
1518 1518 1519 1519 1519 1520 1520 1520 1520 1520 1519 1519 1518 1517 1517 1516 1515 1515 1515 1515 1515 1516 1516 1517 1518 1519 1520 1521 1523 1524 1525 1526 1527 1528 1529 1530 1531 1532 1532 1533 1534 1535 1535
1514 1515 1515 1515 1516 1516 1517 1518 1518 1518 1517 1517 1516 1516 1515 1515 1514 1514 1514 1514 1514 1515 1515 1516 1517 1518 1519 1520 1521 1523 1524 1525 1526 1526 1527 1528 1529 1529 1530 1531 1532 1533 1533
1509 1511 1512 1512 1512 1513 1514 1514 1514 1515 1515 1515 1514 1514 1513 1513 1513 1513 1513 1513 1513 1513 1514 1514 1515 1516 1517 1518 1519 1520 1521 1522 1523 1524 1525 1526 1526 1527 1528 1529 1529 1530 1531
1504 1505 1507 1508 1509 1509 1509 1510 1510 1511 1511 1512 1512 1512 1511 1511 1511 1511 1511 1511 1511 1511 1512 1512 1513 1513 1514 1515 1516 1517 1518 1519 1520 1521 1522 1522 1523 1524 1525 1526 1527 1527 1528
1499 1500 1501 1502 1503 1504 1505 1506 1506 1507 1508 1508 1509 1509 1509 1509 1509 1509 1509 1509 1509 1509 1509 1510 1510 1511 1511 1512 1513 1513 1514 1515 1516 1517 1518 1519 1520 1521 1522 1522 1523 1524 1525
1492 1494 1495 1497 1498 1499 1500 1501 1502 1503 1504 1504 1505 1505 1505 1506 1506 1506 1506 1506 1506 1506 1506 1507 1507 1508 1508 1509 1509 1510 1511 1511 1512 1513 1514 1515 1516 1517 1518 1519 1520 1520 1521